Regional Weather Roundup
Issued by NWS

Home | Current Version | Previous Version | Graphics & Text | Print | Product List | Glossary On
Versions: 1 2 3 4 5 6 7 8 9 10 11 12 13 14 15 16 17 18 19 20 21 22 23 24 25 26 27 28 29 30 31 32 33 34 35 36 37 38 39 40 41 42 43 44 45 46 47 48 49 50
000
ASUS43 KBIS 301510
RWRND

NORTH DAKOTA REGIONAL WEATHER ROUNDUP
NATIONAL WEATHER SERVICE BISMARCK ND
1000 AM CDT SAT JUL 30 2016

NOTE: "FAIR" INDICATES FEW OR NO CLOUDS BELOW 12,000 FEET WITH NO
SIGNIFICANT WEATHER AND/OR OBSTRUCTIONS TO VISIBILITY.


NDZ001>003-009>011-017-301600-
NORTHWEST NORTH DAKOTA

CITY           SKY/WX    TMP DP  RH WIND       PRES   REMARKS
WILLISTON      SUNNY     71  60  68 SE6       29.89F
MINOT          SUNNY     77  60  55 SE7       29.89S
MINOT AFB      SUNNY     73  63  69 SW6       29.88S
$$

NDZ018>021-031>035-040>046-301600-
SOUTHWEST NORTH DAKOTA

CITY           SKY/WX    TMP DP  RH WIND       PRES   REMARKS
BISMARCK       CLOUDY    67  61  81 SE12      29.91F
DICKINSON      SUNNY     70  61  73 VRB3      29.90F
GARRISON         N/A     70  63  78 S9        29.90F
HETTINGER ARPT SUNNY     74  59  59 S3        29.93S
$$

NDZ004>008-012>016-024-026-027-054-301600-
NORTHEAST NORTH DAKOTA

CITY           SKY/WX    TMP DP  RH WIND       PRES   REMARKS
GRAND FORKS    PTSUNNY   71  62  73 SE12      29.95S
GRND FRKS AFB  PTSUNNY   73  63  69 S12       29.94F
DEVILS LAKE    SUNNY     72  62  71 W6        29.93F
$$

NDZ022-023-025-028>030-036>039-047>053-301600-
SOUTHEAST NORTH DAKOTA

CITY           SKY/WX    TMP DP  RH WIND       PRES   REMARKS
FARGO          PTSUNNY   74  61  63 S8        29.98S
JAMESTOWN      CLOUDY    69  61  75 S5        29.96
$$





USA.gov is the U.S. government's official web portal to all federal, state and local government web resources and services.